THOR ABLESTAR DEB, 3592

Orbit data source: Space-Track

THOR ABLESTAR DEB, 3592 is space debris in LEO originally from a launch on Thu, 24 Jun 1965 UTC launched from the Air Force Western Test Range (AFWTR). Debris objects in space refer to the collection of defunct objects orbiting the Earth. Examples of debris include non-operational satellites, rocket bodies, and fragments generated from explosions, collisions, or faulty payload assembly.

Loading next visibility...
Identifier
3592, 1965-048F
Orbit
LEO
Last TLE update
21 hours ago
Origin
Manufacturer
Unknown
Mission
Spacecraft
Bus & Motor
Unknown
Mass
Unknown
Launch date (UTC)
1965-06-24 (60 years ago)
Launch vehicle
Unknown
Launch site
Air Force Western Test Range (AFWTR)
Object type
Payload
Rocket body
Debris
Shape & HBR
Unknown
Radar Cross Section
Small (<0.1 m²)

Expand to show TLE details & history

TLE from 21 hours ago
0 THOR ABLESTAR DEB
1 03592U 65048F   25128.46376703  .00000376  00000-0  46479-3 0  9995
2 03592  89.8809 292.8018 0063076  77.2129 352.9866 13.62473572964854
Epoch: 2025-05-08T11:07Z
Definitive object data (Epoch: 2025-05-08T11:07:49.471Z)
Latitude
70.18077°
Longitude
-100.35947°
Altitude
992.578 km
Speed
7.385 km/s
True Right ascension
19h 32m 31s
True Declination
70° 04' 28"
Sunlit
Object was in daylight at TLE epoch
Visualization TLE readout
Latitude
52.23605°
Longitude
79.14788°
Altitude
1,007.145 km
Speed
7.367 km/s
Apparent Right ascension
06h 03m 15s
Apparent Declination
11° 12' 13"
Sunlit
Object is in daylight
Visualization observer readout
Local Sidereal Time
16:42:49
Azimuth
335.5° NNW
Elevation
-35.579°
Doppler factor
1
Orbital elements
Apogee altitude
1,070.436 km
Perigee altitude
977.059 km
Semi-major axis
7,401.885 km
Eccentricity
0.0063076
Inclination
89.8809°
RAAN
292.8018°
Arg. of periapsis
77.2129°
True anomaly
352.89765°
Mean anomaly
352.9866°
Eccentric anomaly
352.94219°
Mean motion
3.40824 °/min
BSTAR
0.00046479
Orbital period
105.63 mins
Loading maneuver chart data...
Loading SW <> Apogee altitude chart data...

THOR ABLESTAR DEB Visibility forecast

Observer location: undefined°, undefined°

Span
Click to sort rows by Start time (UTC) header in descending order
Start Az.
Max El. time (UTC)
Max El. Az.
Max El.
End time (UTC)
End Az.
6 mins2025-05-09 09:51:38.293Z105.576° ESE2025-05-09 09:54:38.293Z73.453° E17.065°2025-05-09 09:57:38.293Z40.828° NE
11 mins2025-05-09 11:34:38.293Z190.101° SSW2025-05-09 11:39:38.293Z273.589° WNW42.376°2025-05-09 11:45:38.293Z352.058° N
10 mins2025-05-09 22:38:38.293Z19.615° NNE2025-05-09 22:43:38.293Z98.525° ESE35.977°2025-05-09 22:48:38.293Z158.176° S
8 mins2025-05-10 00:24:38.293Z329.005° NNW2025-05-10 00:28:38.293Z280.785° WNW23.319°2025-05-10 00:32:38.293Z236.266° WSW
|